N91HK KOLV-MYAM

Flight info

Callsign N91HK
Flight time N/A
Altitude 31000
Route VUZ DCT OMN DCT ATTIK DCT WOMIS
Aircraft CL60/M-SADE3FGHIJ3J4J7P2RWXY/HB1D1

Departure

Time N/A
Airport Olive Branch Airport (KOLV)

Arrival

Time 2026-04-21 23:14
Airport Leonard M. Thompson International Airport (MYAM)
Time Latitude Longitude Altitude Speed Heading
2026-04-21 22:35 29.72025 -81.63642 31241 ft 543 kts 134°
2026-04-21 22:35 29.66716 -81.57017 31235 ft 543 kts 134°
2026-04-21 22:36 29.59041 -81.47411 31263 ft 543 kts 134°
2026-04-21 22:36 29.53899 -81.41001 31281 ft 543 kts 134°
2026-04-21 22:37 29.48763 -81.34618 31310 ft 543 kts 134°
2026-04-21 22:37 29.43563 -81.28172 31306 ft 544 kts 134°
2026-04-21 22:38 29.38387 -81.21771 31303 ft 544 kts 134°
2026-04-21 22:38 29.33221 -81.15395 31303 ft 544 kts 134°
2026-04-21 22:39 29.28002 -81.09119 31301 ft 544 kts 136°
2026-04-21 22:39 29.22471 -81.03021 31297 ft 543 kts 137°
2026-04-21 22:40 29.16981 -80.97034 31300 ft 544 kts 137°
2026-04-21 22:40 29.11486 -80.90939 31294 ft 545 kts 136°
2026-04-21 22:41 29.05989 -80.84862 31296 ft 545 kts 136°
2026-04-21 22:41 29.00530 -80.78855 31296 ft 545 kts 136°
2026-04-21 22:42 28.94990 -80.72781 31299 ft 545 kts 136°
2026-04-21 22:42 28.89503 -80.66824 31278 ft 544 kts 137°
2026-04-21 22:43 28.83982 -80.60828 31281 ft 544 kts 135°
2026-04-21 22:43 28.79374 -80.53965 31273 ft 544 kts 126°
2026-04-21 22:44 28.74839 -80.46996 31273 ft 544 kts 126°
2026-04-21 22:44 28.70369 -80.40239 31282 ft 543 kts 127°
2026-04-21 22:45 28.65828 -80.33310 31273 ft 544 kts 127°
2026-04-21 22:45 28.61262 -80.26405 31269 ft 543 kts 128°
2026-04-21 22:46 28.56704 -80.19521 31270 ft 544 kts 128°
2026-04-21 22:46 28.52121 -80.12589 31274 ft 545 kts 128°
2026-04-21 22:47 28.47567 -80.05712 31272 ft 545 kts 127°
2026-04-21 22:47 28.42982 -79.98799 31273 ft 545 kts 128°
2026-04-21 22:48 28.38411 -79.91927 31271 ft 545 kts 128°
2026-04-21 22:48 28.33802 -79.85010 31274 ft 544 kts 127°
2026-04-21 22:49 28.29210 -79.78122 31271 ft 544 kts 127°
2026-04-21 22:49 28.24629 -79.71255 31264 ft 544 kts 127°
2026-04-21 22:50 28.20020 -79.64330 31258 ft 544 kts 127°
2026-04-21 22:50 28.15408 -79.57443 31265 ft 544 kts 127°
2026-04-21 22:51 28.10790 -79.50562 31263 ft 545 kts 127°
2026-04-21 22:51 28.06203 -79.43726 31258 ft 545 kts 127°
2026-04-21 22:52 28.01578 -79.36855 31260 ft 545 kts 127°
2026-04-21 22:52 27.96960 -79.30006 31261 ft 545 kts 128°
2026-04-21 22:53 27.92376 -79.23217 31266 ft 545 kts 127°
2026-04-21 22:53 27.87768 -79.16404 31258 ft 544 kts 128°
2026-04-21 22:54 27.83288 -79.09789 31253 ft 545 kts 128°
2026-04-21 22:54 27.78739 -79.03086 31259 ft 544 kts 128°
2026-04-21 22:55 27.74108 -78.96268 31250 ft 545 kts 128°
2026-04-21 22:55 27.69434 -78.89442 31255 ft 544 kts 129°
2026-04-21 22:56 27.64802 -78.82668 31255 ft 545 kts 129°
2026-04-21 22:56 27.60146 -78.75848 31253 ft 545 kts 129°
2026-04-21 22:57 27.55496 -78.69014 31253 ft 547 kts 128°
2026-04-21 22:57 27.50821 -78.62157 31252 ft 547 kts 128°
2026-04-21 22:58 27.46124 -78.55308 31112 ft 547 kts 128°
2026-04-21 22:58 27.43782 -78.51901 30550 ft 540 kts 128°
2026-04-21 22:58 27.41491 -78.48566 29895 ft 528 kts 128°
2026-04-21 22:59 27.39239 -78.45289 29221 ft 518 kts 128°
2026-04-21 22:59 27.37051 -78.42109 28553 ft 510 kts 128°
2026-04-21 22:59 27.34900 -78.38984 27878 ft 502 kts 128°
2026-04-21 22:59 27.32766 -78.35887 27219 ft 495 kts 128°
2026-04-21 23:00 27.30647 -78.32828 26571 ft 491 kts 129°
2026-04-21 23:00 27.28580 -78.29848 25923 ft 486 kts 129°
2026-04-21 23:00 27.26516 -78.26866 25285 ft 480 kts 129°
2026-04-21 23:00 27.24448 -78.23879 24635 ft 475 kts 129°
2026-04-21 23:01 27.22409 -78.20940 24013 ft 484 kts 129°
2026-04-21 23:01 27.20301 -78.17903 23360 ft 497 kts 129°
2026-04-21 23:01 27.18159 -78.14818 22702 ft 501 kts 129°
2026-04-21 23:01 27.16001 -78.11710 22023 ft 496 kts 129°
2026-04-21 23:02 27.13906 -78.08694 21373 ft 488 kts 129°
2026-04-21 23:02 27.11832 -78.05680 20717 ft 482 kts 128°
2026-04-21 23:02 27.09768 -78.02690 20076 ft 484 kts 128°
2026-04-21 23:02 27.07672 -77.99673 19421 ft 485 kts 128°
2026-04-21 23:03 27.05565 -77.96644 18764 ft 482 kts 128°
2026-04-21 23:03 27.03487 -77.93658 18119 ft 476 kts 128°
2026-04-21 23:03 27.01473 -77.90768 17501 ft 471 kts 128°
2026-04-21 23:03 26.99457 -77.87876 16868 ft 465 kts 128°
2026-04-21 23:04 26.97477 -77.85036 16255 ft 459 kts 128°
2026-04-21 23:04 26.95492 -77.82192 15655 ft 454 kts 128°
2026-04-21 23:04 26.93556 -77.79418 15054 ft 450 kts 128°
2026-04-21 23:04 26.91618 -77.76645 14453 ft 445 kts 128°
2026-04-21 23:05 26.89711 -77.73917 13858 ft 440 kts 128°
2026-04-21 23:05 26.87838 -77.71242 13284 ft 436 kts 128°
2026-04-21 23:05 26.85969 -77.68574 12702 ft 432 kts 128°
2026-04-21 23:05 26.84127 -77.65945 12136 ft 428 kts 128°
2026-04-21 23:06 26.82276 -77.63305 11563 ft 424 kts 128°
2026-04-21 23:06 26.80436 -77.60681 10989 ft 415 kts 128°
2026-04-21 23:06 26.78693 -77.58193 10451 ft 396 kts 128°
2026-04-21 23:06 26.77002 -77.55777 9928 ft 380 kts 128°
2026-04-21 23:07 26.75394 -77.53483 9436 ft 366 kts 128°
2026-04-21 23:07 26.73842 -77.51268 8955 ft 353 kts 127°
2026-04-21 23:07 26.72329 -77.49110 8492 ft 346 kts 127°
2026-04-21 23:07 26.70846 -77.47000 8019 ft 345 kts 127°
2026-04-21 23:08 26.69357 -77.44878 7553 ft 342 kts 127°
2026-04-21 23:08 26.67886 -77.42778 7103 ft 339 kts 127°
2026-04-21 23:08 26.66416 -77.40688 6646 ft 335 kts 127°
2026-04-21 23:08 26.64982 -77.38657 6215 ft 327 kts 126°
2026-04-21 23:09 26.63570 -77.36655 5776 ft 320 kts 126°
2026-04-21 23:09 26.62188 -77.34694 5343 ft 313 kts 126°
2026-04-21 23:09 26.60866 -77.32820 4937 ft 302 kts 126°
2026-04-21 23:09 26.59571 -77.30984 4538 ft 292 kts 125°
2026-04-21 23:10 26.58331 -77.29226 4157 ft 282 kts 124°
2026-04-21 23:10 26.57137 -77.27531 3791 ft 274 kts 124°
2026-04-21 23:10 26.55956 -77.25857 3427 ft 266 kts 124°
2026-04-21 23:10 26.54824 -77.24255 3074 ft 259 kts 124°
2026-04-21 23:11 26.53710 -77.22678 2741 ft 252 kts 123°
2026-04-21 23:11 26.52630 -77.21152 2404 ft 246 kts 124°
2026-04-21 23:11 26.51607 -77.19726 2015 ft 223 kts 123°
2026-04-21 23:11 26.50918 -77.18345 1859 ft 182 kts 101°
2026-04-21 23:12 26.50776 -77.17049 1571 ft 158 kts 87°
2026-04-21 23:12 26.50795 -77.15917 1418 ft 133 kts 85°
2026-04-21 23:12 26.50818 -77.14947 1222 ft 114 kts 85°
2026-04-21 23:12 26.50845 -77.14041 1071 ft 116 kts 84°
2026-04-21 23:13 26.50871 -77.13135 860 ft 115 kts 84°
2026-04-21 23:13 26.50882 -77.12238 665 ft 116 kts 85°
2026-04-21 23:13 26.50920 -77.11342 448 ft 114 kts 81°
2026-04-21 23:13 26.50958 -77.10465 216 ft 110 kts 85°
2026-04-21 23:14 26.50984 -77.09602 49 ft 111 kts 84°
2026-04-21 23:14 26.51005 -77.08829 14 ft 84 kts 87°
2026-04-21 23:14 26.51016 -77.08534 17 ft 4 kts 57°
2026-04-21 23:14 26.51059 -77.08528 17 ft 7 kts
2026-04-21 23:15 26.51121 -77.08528 16 ft 10 kts 14°
2026-04-21 23:15 26.51142 -77.08447 17 ft 12 kts 71°
2026-04-21 23:15 26.51244 -77.08424 16 ft 22 kts 356°
2026-04-21 23:15 26.51331 -77.08415 15 ft 6 kts 68°
2026-04-21 23:16 26.51332 -77.08401 15 ft 0 kts 86°